Location: Sawmill Trailhead
(33.5800°N, 116.4497°W)
Time: 06:18:49
(UTC-07:00)

Amateur Radio Satellites - All Passes

Search period start: 01 November 2014 05:48
Search period end: 02 November 2014 04:48
Location: Sawmill Trailhead, 33.5800°N, 116.4497°W

Satellite Date Start Highest point End Downlink Frequencies (MHz)
Time Altitude Azimuth
STRAND 1 01 Nov 05:56:39 06:00:35 23° 68° (ENE) 06:04:33 ?
RS-15 01 Nov 06:00:18 06:11:28 64° 58° (ENE) 06:23:05 29.354 - 29.394 USB, Beacon 29.352 USB
Uosat F 01 Nov 06:04:00 06:08:22 30° 290° (WNW) 06:12:42 435.120 FM
JAS-2 01 Nov 06:20:07 06:28:02 89° 284° (WNW) 06:35:31 435.800 - 435.900 CW/SSB, 435.910 FM
PANSAT 01 Nov 06:36:53 06:40:19 31° 190° (S) 06:43:44 not established
Hamsat 01 Nov 06:41:34 06:45:47 72° 283° (WNW) 06:50:01 145.90 MHz
AO-7 01 Nov 06:42:19 06:48:55 27° 300° (WNW) 06:55:32 29.400 - 29.500 MHz
SO-67 01 Nov 06:57:35 06:59:34 15° 94° (E) 07:01:33 435.3500 MHz FM
STRAND 1 01 Nov 07:34:52 07:39:31 35° 262° (W) 07:44:13 ?
MaSat-1 01 Nov 07:41:58 07:44:20 60° 66° (ENE) 07:46:37 437.345 MHz
JAS-2 01 Nov 08:07:24 08:11:53 17° 301° (WNW) 08:16:18 435.800 - 435.900 CW/SSB, 435.910 FM
RS-15 01 Nov 08:13:41 08:23:06 32° 255° (WSW) 08:32:53 29.354 - 29.394 USB, Beacon 29.352 USB
HO-68 01 Nov 08:14:08 08:17:15 13° 92° (E) 08:20:22 435.675 MHz FM
PANSAT 01 Nov 08:17:54 08:19:58 14° 201° (SSW) 08:22:03 not established
ISS 01 Nov 08:21:07 08:23:29 18° 128° (SE) 08:25:50 145.800 FM
SO-67 01 Nov 08:29:45 08:32:28 22° 287° (WNW) 08:35:10 435.3500 MHz FM
Oscar 11 01 Nov 09:27:48 09:30:14 15° 94° (E) 09:32:39 145.825 FM, Beacon 2401.500 USB
SO-50 01 Nov 09:35:27 09:38:07 16° 108° (ESE) 09:40:49 436.795 FM
KITSAT 1 01 Nov 09:47:23 09:54:49 42° 109° (ESE) 10:02:16 435.175 FM
ISS 01 Nov 09:56:58 09:59:58 32° 322° (NW) 10:03:00 145.800 FM
HO-68 01 Nov 09:58:24 10:05:38 86° 286° (WNW) 10:12:48 435.675 MHz FM
UKube-1 01 Nov 10:28:08 10:32:30 84° 103° (ESE) 10:36:51 145.840 MHz, 145.915 MHz
ZACube-1 01 Nov 10:39:20 10:43:17 41° 99° (E) 10:47:12 437.345 MHz
Oscar 11 01 Nov 11:02:32 11:06:30 37° 287° (WNW) 11:10:27 145.825 FM, Beacon 2401.500 USB
Sapphire 01 Nov 11:05:27 11:10:25 35° 58° (ENE) 11:15:22 437.095 MHz 1200 baud AX-25 AFSK
SO-50 01 Nov 11:14:00 11:18:14 42° 303° (WNW) 11:22:36 436.795 FM
FUNcube-1 01 Nov 11:21:51 11:25:56 55° 285° (WNW) 11:29:57 145.950 - 145.970 MHz USB
PCSat 01 Nov 11:26:44 11:32:06 60° 62° (ENE) 11:37:26 145.825 MHz
KITSAT 1 01 Nov 11:42:47 11:50:10 38° 306° (NW) 11:57:36 435.175 FM
HO-68 01 Nov 11:48:55 11:52:16 14° 303° (WNW) 11:55:37 435.675 MHz FM
UOSAT-12 01 Nov 11:51:43 11:55:59 39° 113° (ESE) 12:00:21 437.025 FM, 437.400 FM
ZACube-1 01 Nov 12:17:29 12:19:16 13° 293° (WNW) 12:21:04 437.345 MHz
Oscar 19 01 Nov 12:30:33 12:34:01 19° 67° (ENE) 12:37:29 437.125 CW, 437.150 USB
Sapphire 01 Nov 12:49:13 12:53:37 26° 253° (WSW) 12:57:59 437.095 MHz 1200 baud AX-25 AFSK
AO-27 01 Nov 13:09:46 13:13:15 18° 66° (ENE) 13:16:44 436.795 MHz FM
PCSat 01 Nov 13:12:09 13:14:55 14° 257° (WSW) 13:17:40 145.825 MHz
Oscar 16 01 Nov 13:15:58 13:21:00 56° 74° (ENE) 13:26:01 437.025 USB, Beacon 2401.1428
Gurwin Techsat 1B 01 Nov 13:32:21 13:35:22 16° 65° (ENE) 13:38:23 435.225 FM
UOSAT-12 01 Nov 13:32:48 13:36:15 20° 309° (NW) 13:39:46 437.025 FM, 437.400 FM
TMSAT-1 01 Nov 13:38:50 13:41:03 13° 64° (ENE) 13:43:15 436.925 FM
AO-Echo 01 Nov 13:41:38 13:46:23 48° 73° (ENE) 13:51:19 ?
JAS-1B 01 Nov 13:42:46 13:48:37 87° 76° (ENE) 13:54:19 435.800 - 435.900 CW/SSB
Uribyol 2 01 Nov 13:51:03 13:56:04 50° 73° (ENE) 14:01:07 436.500 FM
ITAMSAT 1 01 Nov 13:59:15 14:04:20 57° 74° (ENE) 14:09:27 435.822 SSB
Saudisat 1A 01 Nov 14:01:20 14:05:07 27° 54° (NE) 14:08:53 436.775 MHz
Oscar 19 01 Nov 14:08:06 14:12:59 43° 261° (W) 14:17:52 437.125 CW, 437.150 USB
AO-27 01 Nov 14:47:22 14:52:21 46° 260° (W) 14:57:22 436.795 MHz FM
Oscar 16 01 Nov 14:58:05 15:00:37 14° 267° (W) 15:03:09 437.025 USB, Beacon 2401.1428
Gurwin Techsat 1B 01 Nov 15:09:36 15:14:48 56° 259° (W) 15:20:01 435.225 FM
TMSAT-1 01 Nov 15:15:02 15:20:18 69° 258° (WSW) 15:25:36 436.925 FM
AO-Echo 01 Nov 15:22:32 15:25:24 15° 268° (W) 15:28:20 ?
Uribyol 2 01 Nov 15:32:39 15:35:45 16° 266° (W) 15:38:52 436.500 FM
Uosat F 01 Nov 15:35:12 15:39:08 24° 68° (ENE) 15:43:04 435.120 FM
Saudisat 1A 01 Nov 15:40:57 15:44:33 25° 249° (WSW) 15:48:08 436.775 MHz
ITAMSAT 1 01 Nov 15:41:31 15:44:07 14° 267° (W) 15:46:43 435.822 SSB
AO-7 01 Nov 15:42:56 15:50:56 57° 68° (ENE) 15:58:59 29.400 - 29.500 MHz
ISS 01 Nov 16:28:29 16:31:40 41° 40° (NE) 16:34:50 145.800 FM
JAS-2 01 Nov 16:28:31 16:33:37 26° 64° (ENE) 16:39:13 435.800 - 435.900 CW/SSB, 435.910 FM
Oscar 10/S400 01 Nov 16:58:31 17:18:49 74° 180° (S) 01:25:26 145.825 - 145.975 CW/USB, Beacon 145.810 USB
AO-40 01 Nov 16:59:43 21:54:45 47° 187° (S) 02:48:14 Beacon 2401.320
Uosat F 01 Nov 17:13:12 17:17:41 33° 262° (W) 17:22:13 435.120 FM
Hamsat 01 Nov 17:30:48 17:34:47 45° 75° (ENE) 17:38:47 145.90 MHz
AO-7 01 Nov 17:37:22 17:44:00 27° 263° (W) 17:50:41 29.400 - 29.500 MHz
KITSAT 1 01 Nov 17:47:37 17:50:06 12° 36° (NE) 17:52:34 435.175 FM
OPAL 01 Nov 17:50:28 17:55:17 51° 102° (ESE) 18:00:05 ?
ISS 01 Nov 18:06:13 18:08:04 14° 233° (SW) 18:09:54 145.800 FM
JAS-2 01 Nov 18:12:21 18:18:12 46° 263° (W) 18:24:51 435.800 - 435.900 CW/SSB, 435.910 FM
SO-67 01 Nov 18:57:27 19:00:48 54° 76° (ENE) 19:04:10 435.3500 MHz FM
Hamsat 01 Nov 19:09:51 19:10:55 11° 268° (W) 19:11:59 145.90 MHz
OPAL 01 Nov 19:30:52 19:33:42 16° 296° (WNW) 19:36:32 ?
KITSAT 1 01 Nov 19:39:35 19:47:29 54° 59° (ENE) 19:55:19 435.175 FM
SO-50 01 Nov 19:48:56 19:53:44 56° 59° (ENE) 19:58:32 436.795 FM
STRAND 1 01 Nov 19:49:02 19:54:11 75° 285° (WNW) 19:59:16 ?
RS-15 01 Nov 20:18:30 20:29:17 61° 112° (ESE) 20:39:55 29.354 - 29.394 USB, Beacon 29.352 USB
HO-68 01 Nov 20:22:22 20:29:09 48° 69° (ENE) 20:35:57 435.675 MHz FM
UOSAT-12 01 Nov 20:26:28 20:28:51 14° 47° (NE) 20:31:14 437.025 FM, 437.400 FM
MaSat-1 01 Nov 21:11:59 21:15:48 44° 110° (ESE) 21:19:16 437.345 MHz
UKube-1 01 Nov 21:19:33 21:23:39 42° 73° (ENE) 21:27:46 145.840 MHz, 145.915 MHz
SO-50 01 Nov 21:31:23 21:33:48 14° 253° (WSW) 21:36:12 436.795 FM
ZACube-1 01 Nov 21:32:12 21:35:43 23° 71° (ENE) 21:39:11 437.345 MHz
KITSAT 1 01 Nov 21:35:49 21:42:23 28° 255° (WSW) 21:48:57 435.175 FM
Oscar 11 01 Nov 21:52:58 21:57:16 81° 258° (WSW) 22:01:36 145.825 FM, Beacon 2401.500 USB
UOSAT-12 01 Nov 22:04:47 22:09:27 66° 244° (WSW) 22:14:00 437.025 FM, 437.400 FM
HO-68 01 Nov 22:11:05 22:16:58 27° 263° (W) 22:22:54 435.675 MHz FM
FUNcube-1 01 Nov 22:13:31 22:18:02 69° 76° (ENE) 22:22:27 145.950 - 145.970 MHz USB
RS-15 01 Nov 22:32:23 22:42:06 35° 313° (NW) 22:51:52 29.354 - 29.394 USB, Beacon 29.352 USB
MaSat-1 01 Nov 22:50:19 22:51:12 11° 301° (WNW) 22:52:04 437.345 MHz
UKube-1 01 Nov 22:57:52 22:59:59 13° 266° (W) 23:02:05 145.840 MHz, 145.915 MHz
ZACube-1 01 Nov 23:08:05 23:11:56 27° 263° (W) 23:15:44 437.345 MHz
PCSat 02 Nov 00:24:19 00:26:47 13° 103° (ESE) 00:29:16 145.825 MHz
RS-15 02 Nov 00:56:37 00:59:20 11° 345° (NNW) 01:02:03 29.354 - 29.394 USB, Beacon 29.352 USB
JAS-1B 02 Nov 01:28:57 01:35:52 35° 99° (E) 01:43:48 435.800 - 435.900 CW/SSB
Oscar 16 02 Nov 01:32:16 01:36:35 27° 97° (E) 01:40:52 437.025 USB, Beacon 2401.1428
Sapphire 02 Nov 01:42:43 01:48:05 75° 114° (ESE) 01:53:30 437.095 MHz 1200 baud AX-25 AFSK
AO-Echo 02 Nov 01:53:35 01:57:45 23° 95° (E) 01:01:50 ?
PCSat 02 Nov 01:04:13 01:09:34 64° 297° (WNW) 01:14:58 145.825 MHz
Uribyol 2 02 Nov 01:08:32 01:12:44 25° 96° (E) 01:16:54 436.500 FM
ITAMSAT 1 02 Nov 01:16:46 01:21:13 28° 97° (E) 01:25:37 435.822 SSB
Oscar 19 02 Nov 01:23:27 01:28:35 89° 284° (WNW) 01:33:43 437.125 CW, 437.150 USB
PANSAT 02 Nov 01:52:00 01:55:07 23° 165° (SSE) 01:58:14 not established
AO-27 02 Nov 02:04:16 02:09:31 89° 104° (ESE) 02:14:43 436.795 MHz FM
Oscar 16 02 Nov 02:11:29 02:15:49 29° 290° (WNW) 02:20:10 437.025 USB, Beacon 2401.1428
RS-15 02 Nov 02:13:45 02:19:13 14° 25° (NNE) 02:24:44 29.354 - 29.394 USB, Beacon 29.352 USB
JAS-1B 02 Nov 02:19:20 02:26:18 44° 289° (WNW) 02:34:29 435.800 - 435.900 CW/SSB
Sapphire 02 Nov 02:29:14 02:32:04 14° 310° (NW) 02:34:55 437.095 MHz 1200 baud AX-25 AFSK
Gurwin Techsat 1B 02 Nov 02:29:49 02:35:09 82° 103° (ESE) 02:40:28 435.225 FM
AO-Echo 02 Nov 02:31:42 02:36:30 36° 289° (WNW) 02:41:14 ?
TMSAT-1 02 Nov 02:35:01 02:40:18 67° 102° (ESE) 02:45:33 436.925 FM
Uribyol 2 02 Nov 02:47:36 02:52:09 32° 290° (WNW) 02:56:41 436.500 FM
AO-7 02 Nov 02:50:10 02:56:27 23° 96° (E) 03:02:42 29.400 - 29.500 MHz
ITAMSAT 1 02 Nov 02:56:10 03:00:35 29° 291° (WNW) 03:04:58 435.822 SSB
Saudisat 1A 02 Nov 03:04:55 03:07:47 17° 109° (ESE) 03:10:39 436.775 MHz
PANSAT 02 Nov 03:31:19 03:34:54 38° 177° (S) 03:38:29 not established
OPAL 02 Nov 04:01:22 04:06:23 59° 72° (ENE) 04:11:22 ?
Gurwin Techsat 1B 02 Nov 04:13:24 04:14:21 11° 298° (WNW) 04:15:18 435.225 FM
TMSAT-1 02 Nov 04:17:15 04:19:35 13° 296° (WNW) 04:21:55 436.925 FM
Hamsat 02 Nov 04:22:38 04:23:52 11° 92° (E) 04:25:06 145.90 MHz
Uosat F 02 Nov 04:24:21 04:29:24 77° 285° (WNW) 04:34:24 435.120 FM
RS-15 02 Nov 04:24:26 04:35:14 50° 54° (NE) 04:46:26 29.354 - 29.394 USB, Beacon 29.352 USB
JAS-2 02 Nov 04:25:49 04:32:58 38° 96° (E) 04:39:42 435.800 - 435.900 CW/SSB, 435.910 FM
STRAND 1 02 Nov 04:26:36 04:27:28 10° 62° (ENE) 04:28:21 ?
